SVA40X DNAA-OEJN

Flight info

Callsign SVA40X
Flight time 4h 46m
Altitude 35000
Route ABC UT475 GADUV UQ200 IPISU DCT ASKON L558 DASAG/N0483F370 L558 DASTU UT139 KUTOP DCT BDR DCT ASM UG650 RASKA/N0476F380
Aircraft B77W/H-SDE1E2E3FGHIJ2J3J4J5M1RWXY/LB1D1

Departure

Time 2026-05-08 09:56
Airport Nnamdi Azikiwe International Airport (DNAA)

Arrival

Time 2026-05-08 14:43
Airport King Abdulaziz International Airport (OEJN)
Time Latitude Longitude Altitude Speed Heading
2026-05-08 09:12 9.00714 7.26695 1133 ft 0 kts 180°
2026-05-08 09:45 9.00719 7.26695 1135 ft 4 kts 180°
2026-05-08 09:45 9.00745 7.26695 1131 ft 4 kts 180°
2026-05-08 09:45 9.00768 7.26694 1133 ft 4 kts 181°
2026-05-08 09:45 9.00788 7.26699 1134 ft 4 kts 238°
2026-05-08 09:46 9.00793 7.26713 1136 ft 4 kts 269°
2026-05-08 09:46 9.00793 7.26734 1136 ft 0 kts 269°
2026-05-08 09:49 9.00793 7.26704 1135 ft 8 kts 269°
2026-05-08 09:49 9.00806 7.26653 1134 ft 8 kts 315°
2026-05-08 09:50 9.00812 7.26650 1135 ft 0 kts 332°
2026-05-08 09:50 9.00817 7.26647 1132 ft 1 kts 332°
2026-05-08 09:50 9.00826 7.26645 1132 ft 3 kts 353°
2026-05-08 09:50 9.00856 7.26654 1132 ft 5 kts 20°
2026-05-08 09:51 9.00888 7.26671 1119 ft 6 kts 31°
2026-05-08 09:51 9.00930 7.26699 1119 ft 8 kts 34°
2026-05-08 09:51 9.00978 7.26734 1117 ft 9 kts 34°
2026-05-08 09:51 9.01043 7.26780 1118 ft 16 kts 36°
2026-05-08 09:52 9.01165 7.26867 1135 ft 25 kts 34°
2026-05-08 09:52 9.01307 7.26967 1136 ft 25 kts 35°
2026-05-08 09:52 9.01450 7.27067 1136 ft 25 kts 34°
2026-05-08 09:52 9.01593 7.27168 1137 ft 25 kts 35°
2026-05-08 09:53 9.01733 7.27267 1136 ft 19 kts 35°
2026-05-08 09:53 9.01819 7.27327 1138 ft 9 kts 35°
2026-05-08 09:53 9.01843 7.27344 1139 ft 0 kts 35°
2026-05-08 09:54 9.01845 7.27346 1135 ft 1 kts 35°
2026-05-08 09:54 9.01885 7.27364 1137 ft 13 kts
2026-05-08 09:54 9.01968 7.27297 1138 ft 16 kts 299°
2026-05-08 09:55 9.01943 7.27211 1136 ft 5 kts 218°
2026-05-08 09:55 9.01941 7.27210 1136 ft 0 kts 217°
2026-05-08 09:55 9.01936 7.27206 1139 ft 3 kts 217°
2026-05-08 09:55 9.01789 7.27100 1137 ft 63 kts 215°
2026-05-08 09:56 9.01205 7.26686 1127 ft 141 kts 215°
2026-05-08 09:56 9.00200 7.25974 1111 ft 207 kts 214°
2026-05-08 09:56 8.98891 7.25074 1341 ft 234 kts 214°
2026-05-08 09:56 8.97541 7.24148 1900 ft 236 kts 215°
2026-05-08 09:57 8.95039 7.22165 3332 ft 246 kts 219°
2026-05-08 09:57 8.93660 7.21026 3686 ft 261 kts 217°
2026-05-08 09:57 8.92002 7.20236 4180 ft 271 kts 189°
2026-05-08 09:58 8.90120 7.20333 4852 ft 274 kts 161°
2026-05-08 09:58 8.88506 7.21290 5628 ft 271 kts 133°
2026-05-08 09:58 8.87474 7.22821 6387 ft 266 kts 114°
2026-05-08 09:58 8.86715 7.24557 7090 ft 267 kts 110°
2026-05-08 09:59 8.86057 7.26286 7780 ft 266 kts 104°
2026-05-08 09:59 8.85578 7.28090 8532 ft 265 kts 101°
2026-05-08 09:59 8.85156 7.29902 9318 ft 264 kts 100°
2026-05-08 09:59 8.84739 7.31709 10046 ft 264 kts 100°
2026-05-08 10:00 8.84307 7.33556 10466 ft 279 kts 100°
2026-05-08 10:00 8.83837 7.35542 10630 ft 302 kts 101°
2026-05-08 10:00 8.83320 7.37686 10781 ft 325 kts 101°
2026-05-08 10:00 8.82757 7.39981 10992 ft 345 kts 101°
2026-05-08 10:01 8.82160 7.42375 11473 ft 356 kts 101°
2026-05-08 10:01 8.81540 7.44835 12129 ft 364 kts 102°
2026-05-08 10:01 8.80910 7.47322 12958 ft 367 kts 102°
2026-05-08 10:01 8.80282 7.49794 13728 ft 372 kts 102°
2026-05-08 10:02 8.79633 7.52354 14371 ft 379 kts 102°
2026-05-08 10:02 8.78973 7.54953 15031 ft 384 kts 103°
2026-05-08 10:02 8.78304 7.57587 15695 ft 389 kts 103°
2026-05-08 10:02 8.77626 7.60257 16337 ft 395 kts 103°
2026-05-08 10:03 8.76938 7.62961 16962 ft 400 kts 103°
2026-05-08 10:03 8.76242 7.65699 17590 ft 405 kts 103°
2026-05-08 10:03 8.75538 7.68469 18210 ft 410 kts 104°
2026-05-08 10:03 8.74831 7.71251 18741 ft 414 kts 104°
2026-05-08 10:04 8.74110 7.74084 19320 ft 417 kts 104°
2026-05-08 10:04 8.73385 7.76933 19914 ft 419 kts 103°
2026-05-08 10:04 8.72661 7.79782 20475 ft 423 kts 103°
2026-05-08 10:04 8.71926 7.82671 21030 ft 426 kts 103°
2026-05-08 10:05 8.71185 7.85583 21578 ft 429 kts 103°
2026-05-08 10:05 8.70439 7.88511 22140 ft 432 kts 103°
2026-05-08 10:05 8.69686 7.91467 22687 ft 435 kts 103°
2026-05-08 10:05 8.68938 7.94403 23197 ft 438 kts 103°
2026-05-08 10:06 8.68174 7.97399 23657 ft 442 kts 103°
2026-05-08 10:06 8.67404 8.00420 24058 ft 445 kts 103°
2026-05-08 10:06 8.66628 8.03461 24483 ft 448 kts 103°
2026-05-08 10:06 8.65848 8.06520 24933 ft 450 kts 103°
2026-05-08 10:07 8.65066 8.09581 25376 ft 451 kts 103°
2026-05-08 10:07 8.64195 8.12640 25788 ft 455 kts 107°
2026-05-08 10:07 8.63039 8.15624 26210 ft 458 kts 111°
2026-05-08 10:07 8.61811 8.18598 26652 ft 459 kts 111°
2026-05-08 10:08 8.60588 8.21586 27066 ft 461 kts 110°
2026-05-08 10:08 8.59377 8.24594 27471 ft 464 kts 110°
2026-05-08 10:08 8.58166 8.27624 27858 ft 466 kts 110°
2026-05-08 10:08 8.56959 8.30672 28250 ft 468 kts 110°
2026-05-08 10:09 8.55753 8.33734 28657 ft 470 kts 110°
2026-05-08 10:09 8.54544 8.36811 29030 ft 472 kts 110°
2026-05-08 10:09 8.53328 8.39903 29377 ft 475 kts 110°
2026-05-08 10:09 8.52107 8.43007 29719 ft 477 kts 110°
2026-05-08 10:10 8.50878 8.46125 30021 ft 479 kts 110°
2026-05-08 10:10 8.49643 8.49257 30292 ft 480 kts 109°
2026-05-08 10:10 8.48405 8.52395 30596 ft 481 kts 109°
2026-05-08 10:10 8.47166 8.55532 30925 ft 481 kts 109°
2026-05-08 10:11 8.45925 8.58675 31279 ft 481 kts 109°
2026-05-08 10:11 8.44687 8.61809 31611 ft 481 kts 109°
2026-05-08 10:11 8.43459 8.64920 31932 ft 482 kts 109°
2026-05-08 10:11 8.42217 8.68064 32253 ft 482 kts 109°
2026-05-08 10:12 8.40973 8.71211 32595 ft 482 kts 109°
2026-05-08 10:12 8.39731 8.74354 32942 ft 482 kts 109°
2026-05-08 10:12 8.38489 8.77498 33297 ft 482 kts 109°
2026-05-08 10:12 8.37246 8.80638 33613 ft 482 kts 109°
2026-05-08 10:13 8.35994 8.83782 33918 ft 483 kts 109°
2026-05-08 10:13 8.34735 8.86926 34199 ft 483 kts 109°
2026-05-08 10:13 8.33474 8.90070 34494 ft 482 kts 109°
2026-05-08 10:13 8.32218 8.93206 34782 ft 482 kts 109°
2026-05-08 10:14 8.29688 8.99531 34901 ft 487 kts 109°
2026-05-08 10:14 8.27159 9.05852 34913 ft 483 kts 109°
2026-05-08 10:15 8.24664 9.12118 34918 ft 480 kts 109°
2026-05-08 10:15 8.22176 9.18374 34926 ft 479 kts 109°
2026-05-08 10:16 8.19691 9.24620 34921 ft 479 kts 109°
2026-05-08 10:16 8.17219 9.30825 34920 ft 479 kts 109°
2026-05-08 10:17 8.14747 9.37027 34914 ft 480 kts 109°
2026-05-08 10:17 8.12269 9.43239 34918 ft 480 kts 109°
2026-05-08 10:18 8.09774 9.49492 34910 ft 481 kts 109°
2026-05-08 10:18 8.07273 9.55756 34916 ft 481 kts 109°
2026-05-08 10:19 8.04767 9.62031 34919 ft 482 kts 109°
2026-05-08 10:20 8.00988 9.71490 34926 ft 489 kts 109°
2026-05-08 10:20 7.95177 9.86016 34915 ft 504 kts 109°
2026-05-08 10:21 7.84553 10.12517 34923 ft 515 kts 109°
2026-05-08 10:21 7.73827 10.39225 34927 ft 518 kts 109°
2026-05-08 10:22 7.62972 10.66156 34939 ft 518 kts 109°
2026-05-08 10:22 7.52151 10.92962 34966 ft 517 kts 109°
2026-05-08 10:23 7.41332 11.19710 34961 ft 516 kts 109°
2026-05-08 10:23 7.30505 11.46423 34964 ft 513 kts 109°
2026-05-08 10:24 7.19709 11.73014 34887 ft 513 kts 109°
2026-05-08 10:24 7.16023 11.86663 34967 ft 501 kts 91°
2026-05-08 10:24 7.16481 12.00588 35055 ft 496 kts 84°
2026-05-08 10:25 7.17638 12.28487 35009 ft 500 kts 85°
2026-05-08 10:25 7.18735 12.56255 34997 ft 501 kts 85°
2026-05-08 10:26 7.19817 12.84336 34875 ft 504 kts 85°
2026-05-08 10:26 7.20348 12.98385 35028 ft 501 kts 85°
2026-05-08 10:26 7.20552 13.03814 35052 ft 501 kts 85°
2026-05-08 10:27 7.20817 13.10848 34992 ft 502 kts 85°
2026-05-08 10:27 7.21080 13.17883 34979 ft 503 kts 85°
2026-05-08 10:28 7.21342 13.24919 34992 ft 503 kts 85°
2026-05-08 10:28 7.21603 13.31964 35025 ft 503 kts 85°
2026-05-08 10:29 7.21863 13.39019 35061 ft 504 kts 85°
2026-05-08 10:29 7.22120 13.46022 35086 ft 504 kts 85°
2026-05-08 10:30 7.22379 13.53066 35104 ft 504 kts 85°
2026-05-08 10:30 7.22638 13.60117 35104 ft 505 kts 85°
2026-05-08 10:31 7.22905 13.67174 35091 ft 505 kts 85°
2026-05-08 10:31 7.23173 13.74244 35062 ft 506 kts 85°
2026-05-08 10:32 7.23964 13.95418 34975 ft 507 kts 85°
2026-05-08 10:32 7.25010 14.23865 34982 ft 508 kts 85°
2026-05-08 10:33 7.26027 14.52162 34959 ft 509 kts 85°
2026-05-08 10:33 7.27001 14.80664 34959 ft 509 kts 86°
2026-05-08 10:34 7.27960 15.09153 34949 ft 509 kts 86°
2026-05-08 10:34 7.28901 15.37653 34934 ft 509 kts 86°
2026-05-08 10:35 7.29412 15.57594 34872 ft 510 kts 88°
2026-05-08 10:35 7.29421 15.64719 34932 ft 508 kts 88°
2026-05-08 10:36 7.29442 15.71843 34931 ft 508 kts 87°
2026-05-08 10:36 7.29483 15.78913 34928 ft 508 kts 87°
2026-05-08 10:37 7.29528 15.86024 34920 ft 508 kts 87°
2026-05-08 10:37 7.29572 15.93132 34916 ft 507 kts 87°
2026-05-08 10:38 7.29613 16.00241 34922 ft 508 kts 87°
2026-05-08 10:38 7.29652 16.07358 34908 ft 508 kts 87°
2026-05-08 10:39 7.29690 16.14476 34903 ft 508 kts 87°
2026-05-08 10:39 7.29729 16.21595 34896 ft 508 kts 87°
2026-05-08 10:40 7.29765 16.28723 34899 ft 508 kts 87°
2026-05-08 10:40 7.29800 16.35846 34895 ft 508 kts 88°
2026-05-08 10:41 7.29722 16.42972 34892 ft 509 kts 89°
2026-05-08 10:41 7.29558 16.50063 34890 ft 509 kts 89°
2026-05-08 10:42 7.29402 16.57197 34899 ft 509 kts 89°
2026-05-08 10:42 7.29263 16.64334 34895 ft 510 kts 89°
2026-05-08 10:43 7.29129 16.71473 34889 ft 510 kts 89°
2026-05-08 10:43 7.28993 16.78619 34899 ft 510 kts 89°
2026-05-08 10:44 7.28856 16.85755 34895 ft 510 kts 89°
2026-05-08 10:44 7.28716 16.92896 34898 ft 510 kts 89°
2026-05-08 10:45 7.28575 17.00043 34896 ft 510 kts 89°
2026-05-08 10:45 7.28435 17.07135 34896 ft 510 kts 89°
2026-05-08 10:46 7.28292 17.14272 34899 ft 510 kts 89°
2026-05-08 10:46 7.28149 17.21406 34887 ft 509 kts 89°
2026-05-08 10:47 7.28015 17.28542 34893 ft 509 kts 88°
2026-05-08 10:47 7.27908 17.35680 34888 ft 509 kts 88°
2026-05-08 10:48 7.27804 17.42822 34893 ft 509 kts 88°
2026-05-08 10:48 7.27696 17.49906 34889 ft 509 kts 88°
2026-05-08 10:49 7.27583 17.57040 34887 ft 509 kts 88°
2026-05-08 10:49 7.27468 17.64176 34887 ft 509 kts 89°
2026-05-08 10:50 7.27352 17.71321 34884 ft 510 kts 89°
2026-05-08 10:50 7.27236 17.78464 34884 ft 510 kts 89°
2026-05-08 10:51 7.27119 17.85600 34883 ft 510 kts 89°
2026-05-08 10:51 7.27002 17.92712 34881 ft 510 kts 89°
2026-05-08 10:52 7.26880 17.99860 34881 ft 511 kts 89°
2026-05-08 10:52 7.26759 18.07005 34884 ft 510 kts 89°
2026-05-08 10:53 7.26637 18.14163 34882 ft 511 kts 89°
2026-05-08 10:53 7.26513 18.21317 34877 ft 511 kts 89°
2026-05-08 10:54 7.26389 18.28467 34878 ft 510 kts 89°
2026-05-08 10:54 7.26263 18.35626 34877 ft 510 kts 89°
2026-05-08 10:55 7.26137 18.42729 34880 ft 510 kts 89°
2026-05-08 10:55 7.26009 18.49886 34872 ft 511 kts 89°
2026-05-08 10:56 7.25880 18.57040 34876 ft 511 kts 89°
2026-05-08 10:56 7.25750 18.64202 34877 ft 511 kts 89°
2026-05-08 10:57 7.25619 18.71362 34873 ft 512 kts 89°
2026-05-08 10:57 7.25420 18.82108 34870 ft 512 kts 89°
2026-05-08 10:58 7.25285 18.89292 34870 ft 512 kts 89°
2026-05-08 10:58 7.25149 18.96457 34872 ft 512 kts 89°
2026-05-08 10:59 7.25013 19.03585 34875 ft 512 kts 89°
2026-05-08 10:59 7.24876 19.10755 34878 ft 512 kts 89°
2026-05-08 11:00 7.24737 19.17926 34876 ft 512 kts 89°
2026-05-08 11:00 7.24597 19.25104 34881 ft 512 kts 89°
2026-05-08 11:01 7.24455 19.32278 34878 ft 512 kts 89°
2026-05-08 11:01 7.24313 19.39456 34874 ft 512 kts 89°
2026-05-08 11:02 7.24099 19.50174 34878 ft 512 kts 89°
2026-05-08 11:03 7.23953 19.57352 34878 ft 512 kts 89°
2026-05-08 11:03 7.23807 19.64525 34881 ft 512 kts 89°
2026-05-08 11:04 7.23659 19.71702 34879 ft 513 kts 89°
2026-05-08 11:04 7.23511 19.78880 34880 ft 513 kts 89°
2026-05-08 11:05 7.23362 19.86021 34880 ft 513 kts 89°
2026-05-08 11:05 7.23211 19.93204 34880 ft 513 kts 89°
2026-05-08 11:06 7.23059 20.00385 34875 ft 513 kts 89°
2026-05-08 11:06 7.22906 20.07562 34877 ft 513 kts 89°
2026-05-08 11:07 7.22752 20.14745 34877 ft 513 kts 89°
2026-05-08 11:07 7.22596 20.21930 34874 ft 513 kts 89°
2026-05-08 11:08 7.22440 20.29118 34873 ft 513 kts 89°
2026-05-08 11:08 7.22283 20.36267 34875 ft 513 kts 89°
2026-05-08 11:09 7.22124 20.43458 34874 ft 513 kts 89°
2026-05-08 11:09 7.21964 20.50651 34872 ft 514 kts 89°
2026-05-08 11:10 7.21802 20.57847 34877 ft 514 kts 89°
2026-05-08 11:10 7.21640 20.65044 34874 ft 514 kts 89°
2026-05-08 11:11 7.21476 20.72245 34872 ft 514 kts 89°
2026-05-08 11:11 7.21312 20.79442 34872 ft 514 kts 89°
2026-05-08 11:12 7.21149 20.86655 34875 ft 515 kts 89°
2026-05-08 11:12 7.21016 20.93870 34874 ft 515 kts 89°
2026-05-08 11:13 7.20891 21.01045 34876 ft 515 kts 89°
2026-05-08 11:13 7.20761 21.08271 34873 ft 516 kts 89°
2026-05-08 11:14 7.20627 21.15494 34875 ft 516 kts 89°
2026-05-08 11:14 7.20490 21.22725 34878 ft 517 kts 89°
2026-05-08 11:15 7.20353 21.29964 34882 ft 517 kts 89°
2026-05-08 11:15 7.20214 21.37212 34886 ft 517 kts 89°
2026-05-08 11:16 7.20075 21.44461 34884 ft 518 kts 89°
2026-05-08 11:16 7.19934 21.51716 34885 ft 518 kts 89°
2026-05-08 11:17 7.19793 21.58912 34885 ft 518 kts 89°
2026-05-08 11:17 7.19650 21.66165 34886 ft 518 kts 89°
2026-05-08 11:18 7.19439 21.73410 34885 ft 518 kts 92°
2026-05-08 11:18 7.18328 21.80593 34882 ft 520 kts 99°
2026-05-08 11:19 7.16924 21.87756 34881 ft 521 kts 99°
2026-05-08 11:19 7.15540 21.94916 34886 ft 521 kts 99°
2026-05-08 11:20 7.14187 22.02088 34883 ft 521 kts 99°
2026-05-08 11:20 7.12848 22.09262 34883 ft 522 kts 99°
2026-05-08 11:21 7.11507 22.16440 34879 ft 522 kts 99°
2026-05-08 11:21 7.10387 22.22416 34884 ft 522 kts 99°
2026-05-08 11:22 7.09038 22.29605 34884 ft 523 kts 99°
2026-05-08 11:22 7.07686 22.36803 34882 ft 523 kts 99°
2026-05-08 11:23 7.06331 22.44009 34880 ft 523 kts 99°
2026-05-08 11:23 7.04975 22.51214 34879 ft 524 kts 99°
2026-05-08 11:24 7.03620 22.58412 34880 ft 524 kts 99°
2026-05-08 11:24 7.02270 22.65577 34876 ft 524 kts 99°
2026-05-08 11:25 7.00909 22.72789 34873 ft 524 kts 99°
2026-05-08 11:25 6.99547 22.80006 34871 ft 524 kts 99°
2026-05-08 11:26 6.98182 22.87229 34868 ft 525 kts 99°
2026-05-08 11:26 6.96816 22.94449 34867 ft 525 kts 99°
2026-05-08 11:27 6.95448 23.01678 34872 ft 525 kts 99°
2026-05-08 11:27 6.94089 23.08854 34874 ft 525 kts 99°
2026-05-08 11:28 6.92719 23.16074 34866 ft 525 kts 100°
2026-05-08 11:28 6.91349 23.23294 34867 ft 525 kts 99°
2026-05-08 11:29 6.89977 23.30517 34867 ft 525 kts 99°
2026-05-08 11:29 6.88604 23.37741 34872 ft 525 kts 100°
2026-05-08 11:30 6.87230 23.44965 34866 ft 525 kts 99°
2026-05-08 11:30 6.85856 23.52182 34865 ft 525 kts 100°
2026-05-08 11:31 6.84482 23.59389 34871 ft 525 kts 99°
2026-05-08 11:31 6.83106 23.66604 34863 ft 524 kts 99°
2026-05-08 11:32 6.81730 23.73809 34861 ft 524 kts 100°
2026-05-08 11:32 6.80353 23.81016 34858 ft 524 kts 100°
2026-05-08 11:33 6.78984 23.88173 34857 ft 524 kts 99°
2026-05-08 11:33 6.77607 23.95373 34862 ft 524 kts 99°
2026-05-08 11:34 6.76223 24.02597 34860 ft 524 kts 100°
2026-05-08 11:34 6.74842 24.09800 34853 ft 525 kts 100°
2026-05-08 11:35 6.73465 24.16981 34859 ft 526 kts 99°
2026-05-08 11:35 6.72076 24.24216 34859 ft 527 kts 100°
2026-05-08 11:36 6.70684 24.31458 34859 ft 528 kts 100°
2026-05-08 11:36 6.69290 24.38706 34853 ft 528 kts 100°
2026-05-08 11:37 6.67890 24.45978 34851 ft 529 kts 100°
2026-05-08 11:37 6.66489 24.53252 34853 ft 529 kts 100°
2026-05-08 11:38 6.65094 24.60486 34855 ft 530 kts 100°
2026-05-08 11:38 6.63691 24.67756 34849 ft 530 kts 100°
2026-05-08 11:39 6.62287 24.75029 34847 ft 530 kts 100°
2026-05-08 11:39 6.60882 24.82298 34850 ft 529 kts 100°
2026-05-08 11:40 6.59477 24.89564 34848 ft 528 kts 100°
2026-05-08 11:40 6.58072 24.96822 34847 ft 529 kts 100°
2026-05-08 11:41 6.56667 25.04074 34833 ft 529 kts 100°
2026-05-08 11:41 6.55256 25.11350 34842 ft 530 kts 101°
2026-05-08 11:42 6.53843 25.18634 34844 ft 530 kts 100°
2026-05-08 11:42 6.52438 25.25870 34842 ft 531 kts 101°
2026-05-08 11:43 6.51018 25.33172 34832 ft 531 kts 101°
2026-05-08 11:43 6.49601 25.40460 34838 ft 531 kts 101°
2026-05-08 11:44 6.48180 25.47761 34840 ft 532 kts 101°
2026-05-08 11:44 6.46759 25.55055 34840 ft 532 kts 101°
2026-05-08 11:45 6.45343 25.62316 34837 ft 532 kts 101°
2026-05-08 11:45 6.43918 25.69622 34836 ft 532 kts 101°
2026-05-08 11:46 6.42493 25.76921 34837 ft 532 kts 101°
2026-05-08 11:46 6.41074 25.84179 34836 ft 532 kts 101°
2026-05-08 11:47 6.39646 25.91484 34835 ft 532 kts 101°
2026-05-08 11:47 6.38216 25.98790 34830 ft 532 kts 101°
2026-05-08 11:48 6.36787 26.06087 34839 ft 532 kts 101°
2026-05-08 11:48 6.35353 26.13398 34829 ft 533 kts 101°
2026-05-08 11:49 6.33921 26.20701 34841 ft 533 kts 101°
2026-05-08 11:49 6.32486 26.28013 34832 ft 533 kts 102°
2026-05-08 11:50 6.31060 26.35271 34832 ft 532 kts 102°
2026-05-08 11:50 6.30322 26.42659 34827 ft 532 kts 89°
2026-05-08 11:51 6.31166 26.50029 34831 ft 531 kts 77°
2026-05-08 11:51 6.32916 26.57255 34839 ft 532 kts 76°
2026-05-08 11:52 6.34699 26.64488 34824 ft 533 kts 76°
2026-05-08 11:52 6.36432 26.71731 34829 ft 533 kts 76°
2026-05-08 11:53 6.38135 26.78987 34834 ft 533 kts 77°
2026-05-08 11:53 6.39832 26.86252 34824 ft 534 kts 77°
2026-05-08 11:54 6.41533 26.93527 34824 ft 534 kts 77°
2026-05-08 11:54 6.43227 27.00759 34830 ft 534 kts 77°
2026-05-08 11:55 6.44931 27.08041 34823 ft 535 kts 77°
2026-05-08 11:55 6.46637 27.15335 34823 ft 536 kts 77°
2026-05-08 11:56 6.48342 27.22629 34826 ft 536 kts 77°
2026-05-08 11:56 6.50046 27.29926 34824 ft 535 kts 77°
2026-05-08 11:57 6.51736 27.37171 34823 ft 535 kts 77°
2026-05-08 11:57 6.53438 27.44465 34825 ft 535 kts 77°
2026-05-08 11:58 6.55138 27.51762 34827 ft 535 kts 77°
2026-05-08 11:58 6.56834 27.59044 34825 ft 535 kts 77°
2026-05-08 11:59 6.59368 27.69934 34829 ft 535 kts 77°
2026-05-08 11:59 6.61061 27.77218 34827 ft 535 kts 77°
2026-05-08 12:00 6.62754 27.84503 34829 ft 535 kts 77°
2026-05-08 12:00 6.64446 27.91792 34831 ft 535 kts 77°
2026-05-08 12:01 6.66136 27.99077 34829 ft 535 kts 77°
2026-05-08 12:01 6.67829 28.06379 34837 ft 535 kts 77°
2026-05-08 12:02 6.69519 28.13671 34828 ft 535 kts 77°
2026-05-08 12:02 6.71208 28.20969 34824 ft 535 kts 77°
2026-05-08 12:03 6.72896 28.28265 34828 ft 535 kts 77°
2026-05-08 12:03 6.74583 28.35562 34830 ft 535 kts 77°
2026-05-08 12:04 6.76258 28.42815 34827 ft 536 kts 77°
2026-05-08 12:04 6.77945 28.50120 34828 ft 536 kts 77°
2026-05-08 12:05 6.79630 28.57425 34827 ft 536 kts 77°
2026-05-08 12:05 6.81314 28.64729 34828 ft 536 kts 77°
2026-05-08 12:06 6.82996 28.72033 34827 ft 536 kts 77°
2026-05-08 12:06 6.84679 28.79344 34831 ft 536 kts 77°
2026-05-08 12:07 6.86360 28.86651 34822 ft 536 kts 77°
2026-05-08 12:07 6.88039 28.93957 34825 ft 536 kts 77°
2026-05-08 12:08 6.89718 29.01264 34830 ft 536 kts 77°
2026-05-08 12:08 6.91385 29.08528 34822 ft 536 kts 77°
2026-05-08 12:09 6.92790 29.14655 34826 ft 536 kts 77°
2026-05-08 12:09 6.94740 29.23160 34810 ft 536 kts 77°
2026-05-08 12:10 6.96144 29.29291 34820 ft 536 kts 77°
2026-05-08 12:10 6.97805 29.36549 34819 ft 536 kts 77°
2026-05-08 12:11 6.99480 29.43874 34822 ft 537 kts 77°
2026-05-08 12:11 7.01156 29.51209 34820 ft 537 kts 77°
2026-05-08 12:12 7.02831 29.58546 34817 ft 538 kts 77°
2026-05-08 12:12 7.04506 29.65884 34822 ft 538 kts 77°
2026-05-08 12:13 7.06181 29.73234 34820 ft 538 kts 77°
2026-05-08 12:13 7.07855 29.80581 34820 ft 538 kts 77°
2026-05-08 12:14 7.09529 29.87929 34820 ft 538 kts 77°
2026-05-08 12:14 7.11189 29.95224 34820 ft 538 kts 77°
2026-05-08 12:15 7.12860 30.02575 34821 ft 538 kts 77°
2026-05-08 12:15 7.14527 30.09915 34819 ft 538 kts 77°
2026-05-08 12:16 7.16194 30.17256 34817 ft 537 kts 77°
2026-05-08 12:16 7.17859 30.24597 34816 ft 537 kts 77°
2026-05-08 12:17 7.19521 30.31934 34819 ft 537 kts 77°
2026-05-08 12:17 7.21183 30.39271 34821 ft 537 kts 77°
2026-05-08 12:18 7.22840 30.46597 34819 ft 537 kts 77°
2026-05-08 12:18 7.24499 30.53936 34819 ft 537 kts 77°
2026-05-08 12:19 7.26146 30.61226 34817 ft 537 kts 77°
2026-05-08 12:19 7.27803 30.68567 34814 ft 537 kts 77°
2026-05-08 12:20 7.29458 30.75904 34814 ft 537 kts 77°
2026-05-08 12:20 7.31114 30.83248 34813 ft 537 kts 77°
2026-05-08 12:21 7.32767 30.90590 34817 ft 537 kts 77°
2026-05-08 12:21 7.34418 30.97926 34815 ft 537 kts 78°
2026-05-08 12:22 7.36068 31.05264 34813 ft 536 kts 78°
2026-05-08 12:22 7.37714 31.12590 34813 ft 536 kts 78°
2026-05-08 12:23 7.39357 31.19911 34809 ft 536 kts 78°
2026-05-08 12:23 7.40997 31.27226 34812 ft 535 kts 77°
2026-05-08 12:24 7.42637 31.34543 34811 ft 535 kts 77°
2026-05-08 12:24 7.44266 31.41816 34807 ft 535 kts 78°
2026-05-08 12:25 7.45902 31.49126 34804 ft 535 kts 78°
2026-05-08 12:25 7.47540 31.56456 34807 ft 535 kts 78°
2026-05-08 12:26 7.49175 31.63777 34809 ft 536 kts 78°
2026-05-08 12:26 7.50809 31.71111 34806 ft 536 kts 78°
2026-05-08 12:27 7.52431 31.78406 34812 ft 536 kts 78°
2026-05-08 12:27 7.54063 31.85749 34806 ft 537 kts 78°
2026-05-08 12:28 7.55692 31.93088 34813 ft 537 kts 78°
2026-05-08 12:28 7.57327 32.00458 34807 ft 537 kts 78°
2026-05-08 12:29 7.58956 32.07806 34806 ft 537 kts 78°
2026-05-08 12:29 7.60582 32.15148 34808 ft 537 kts 78°
2026-05-08 12:30 7.62210 32.22503 34811 ft 537 kts 78°
2026-05-08 12:30 7.63826 32.29813 34809 ft 537 kts 78°
2026-05-08 12:31 7.65452 32.37174 34816 ft 537 kts 78°
2026-05-08 12:31 7.67077 32.44536 34800 ft 537 kts 78°
2026-05-08 12:32 7.68699 32.51890 34814 ft 537 kts 78°
2026-05-08 12:32 7.70327 32.59243 34811 ft 537 kts 78°
2026-05-08 12:33 7.71958 32.66587 34810 ft 537 kts 78°
2026-05-08 12:33 7.73586 32.73934 34813 ft 537 kts 78°
2026-05-08 12:34 7.75213 32.81290 34806 ft 537 kts 78°
2026-05-08 12:34 7.76838 32.88639 34811 ft 537 kts 78°
2026-05-08 12:35 7.78462 32.95993 34805 ft 537 kts 78°
2026-05-08 12:35 7.80071 33.03286 34809 ft 536 kts 78°
2026-05-08 12:36 7.81687 33.10615 34808 ft 536 kts 78°
2026-05-08 12:36 7.83294 33.17954 34807 ft 535 kts 78°
2026-05-08 12:37 7.84872 33.25300 34806 ft 535 kts 78°
2026-05-08 12:37 7.86442 33.32632 34804 ft 535 kts 78°
2026-05-08 12:38 7.88016 33.39972 34804 ft 535 kts 78°
2026-05-08 12:38 7.89591 33.47309 34802 ft 535 kts 78°
2026-05-08 12:39 7.91157 33.54608 34802 ft 535 kts 78°
2026-05-08 12:39 7.92729 33.61945 34801 ft 535 kts 78°
2026-05-08 12:40 7.94303 33.69302 34790 ft 536 kts 78°
2026-05-08 12:40 7.95875 33.76653 34800 ft 536 kts 78°
2026-05-08 12:41 7.97447 33.84007 34801 ft 536 kts 78°
2026-05-08 12:41 7.99021 33.91381 34793 ft 536 kts 78°
2026-05-08 12:42 8.00581 33.98694 34793 ft 536 kts 78°
2026-05-08 12:42 8.02150 34.06060 34796 ft 536 kts 78°
2026-05-08 12:43 8.03715 34.13415 34787 ft 536 kts 78°
2026-05-08 12:43 8.05282 34.20782 34798 ft 536 kts 78°
2026-05-08 12:44 8.07809 34.27762 34813 ft 534 kts 59°
2026-05-08 12:44 8.12559 34.33483 34802 ft 532 kts 39°
2026-05-08 12:45 8.18306 34.38218 34816 ft 534 kts 38°
2026-05-08 12:45 8.24081 34.42966 34822 ft 535 kts 39°
2026-05-08 12:46 8.29813 34.47773 34841 ft 536 kts 39°
2026-05-08 12:46 8.35529 34.52620 34840 ft 536 kts 39°
2026-05-08 12:47 8.41244 34.57476 34869 ft 537 kts 39°
2026-05-08 12:47 8.46922 34.62295 34866 ft 537 kts 40°
2026-05-08 12:48 8.52633 34.67141 34910 ft 536 kts 40°
2026-05-08 12:48 8.58342 34.71985 34896 ft 535 kts 40°
2026-05-08 12:49 8.64036 34.76820 34927 ft 534 kts 39°
2026-05-08 12:49 8.69725 34.81651 34932 ft 534 kts 39°
2026-05-08 12:50 8.75420 34.86490 34937 ft 534 kts 40°
2026-05-08 12:50 8.81073 34.91296 34938 ft 535 kts 40°
2026-05-08 12:51 8.89626 34.98571 34935 ft 535 kts 40°
2026-05-08 12:52 8.95325 35.03421 34937 ft 535 kts 39°
2026-05-08 12:52 9.03874 35.10699 34926 ft 535 kts 39°
2026-05-08 12:53 9.09533 35.15521 34917 ft 535 kts 39°
2026-05-08 12:53 9.15220 35.20368 34923 ft 534 kts 39°
2026-05-08 12:54 9.20902 35.25212 34914 ft 534 kts 39°
2026-05-08 12:54 9.26596 35.30069 34929 ft 535 kts 40°
2026-05-08 12:55 9.32282 35.34921 34922 ft 535 kts 40°
2026-05-08 12:55 9.36989 35.38939 34920 ft 534 kts 40°
2026-05-08 12:56 9.42669 35.43791 34924 ft 534 kts 40°
2026-05-08 12:56 9.48353 35.48647 34917 ft 534 kts 40°
2026-05-08 12:57 9.54029 35.53499 34909 ft 534 kts 40°
2026-05-08 12:57 9.59703 35.58351 34901 ft 534 kts 40°
2026-05-08 12:58 9.65382 35.63210 34889 ft 535 kts 40°
2026-05-08 12:58 9.71037 35.68052 34867 ft 535 kts 40°
2026-05-08 12:59 9.76725 35.72922 34863 ft 535 kts 40°
2026-05-08 12:59 9.82411 35.77794 34854 ft 535 kts 40°
2026-05-08 13:00 9.88107 35.82677 34855 ft 536 kts 40°
2026-05-08 13:00 9.93769 35.87532 34855 ft 536 kts 40°
2026-05-08 13:01 9.99474 35.92428 34856 ft 537 kts 40°
2026-05-08 13:01 10.05176 35.97322 34868 ft 537 kts 40°
2026-05-08 13:02 10.10885 36.02224 34868 ft 537 kts 40°
2026-05-08 13:02 10.16580 36.07118 34883 ft 537 kts 40°
2026-05-08 13:03 10.22286 36.12024 34878 ft 537 kts 40°
2026-05-08 13:03 10.27999 36.16937 34874 ft 537 kts 40°
2026-05-08 13:04 10.33662 36.21810 34873 ft 537 kts 40°
2026-05-08 13:04 10.39360 36.26716 34948 ft 538 kts 40°
2026-05-08 13:05 10.42218 36.29177 35101 ft 539 kts 40°
2026-05-08 13:05 10.45064 36.31629 35249 ft 539 kts 40°
2026-05-08 13:05 10.47923 36.34092 35421 ft 539 kts 40°
2026-05-08 13:05 10.50775 36.36550 35618 ft 538 kts 40°
2026-05-08 13:06 10.53631 36.39011 35835 ft 537 kts 40°
2026-05-08 13:06 10.56435 36.41431 36034 ft 535 kts 40°
2026-05-08 13:06 10.59274 36.43881 36202 ft 535 kts 40°
2026-05-08 13:06 10.62115 36.46331 36381 ft 535 kts 40°
2026-05-08 13:07 10.64946 36.48773 36574 ft 534 kts 40°
2026-05-08 13:07 10.67694 36.51145 36770 ft 533 kts 39°
2026-05-08 13:07 10.73217 36.55913 36856 ft 534 kts 39°
2026-05-08 13:08 10.78881 36.60807 36915 ft 534 kts 40°
2026-05-08 13:08 10.84553 36.65710 36935 ft 534 kts 40°
2026-05-08 13:09 10.90192 36.70586 36957 ft 535 kts 40°
2026-05-08 13:09 10.95870 36.75499 36955 ft 534 kts 40°
2026-05-08 13:10 11.01533 36.80402 36956 ft 534 kts 40°
2026-05-08 13:10 11.07068 36.85196 36969 ft 534 kts 40°
2026-05-08 13:11 11.12659 36.90042 36965 ft 534 kts 40°
2026-05-08 13:11 11.18285 36.94920 36976 ft 534 kts 40°
2026-05-08 13:12 11.23917 36.99806 36969 ft 534 kts 40°
2026-05-08 13:12 11.29571 37.04714 36970 ft 534 kts 40°
2026-05-08 13:13 11.35188 37.09593 36957 ft 534 kts 40°
2026-05-08 13:13 11.40795 37.14465 36959 ft 534 kts 40°
2026-05-08 13:14 11.46445 37.19378 36950 ft 535 kts 40°
2026-05-08 13:14 11.52120 37.24316 36942 ft 535 kts 40°
2026-05-08 13:15 11.57831 37.29192 36942 ft 536 kts 36°
2026-05-08 13:15 11.64101 37.33186 36936 ft 535 kts 26°
2026-05-08 13:16 11.70924 37.36205 36944 ft 534 kts 21°
2026-05-08 13:16 11.77828 37.39052 36937 ft 535 kts 21°
2026-05-08 13:17 11.84720 37.41928 36937 ft 535 kts 21°
2026-05-08 13:17 11.91574 37.44831 36937 ft 535 kts 21°
2026-05-08 13:18 11.98452 37.47760 36940 ft 535 kts 21°
2026-05-08 13:18 12.05291 37.50673 36940 ft 536 kts 21°
2026-05-08 13:19 12.12167 37.53599 36940 ft 536 kts 21°
2026-05-08 13:19 12.19060 37.56533 36941 ft 536 kts 21°
2026-05-08 13:20 12.25950 37.59468 36944 ft 536 kts 21°
2026-05-08 13:20 12.32841 37.62404 36951 ft 537 kts 21°
2026-05-08 13:21 12.39753 37.65352 36956 ft 538 kts 21°
2026-05-08 13:21 12.46634 37.68288 36962 ft 539 kts 21°
2026-05-08 13:22 12.53558 37.71245 36964 ft 537 kts 21°
2026-05-08 13:22 12.60456 37.74192 36953 ft 536 kts 21°
2026-05-08 13:23 12.67286 37.77111 36935 ft 535 kts 21°
2026-05-08 13:23 12.74113 37.80030 36950 ft 535 kts 21°
2026-05-08 13:24 12.80977 37.82967 36937 ft 534 kts 21°
2026-05-08 13:24 12.87809 37.85893 36959 ft 532 kts 21°
2026-05-08 13:25 12.94651 37.88825 36989 ft 532 kts 21°
2026-05-08 13:25 13.01491 37.91756 36991 ft 532 kts 21°
2026-05-08 13:26 13.08282 37.94663 36984 ft 532 kts 21°
2026-05-08 13:26 13.15109 37.97601 36976 ft 534 kts 21°
2026-05-08 13:27 13.21940 38.00535 36994 ft 535 kts 21°
2026-05-08 13:27 13.28828 38.03493 36983 ft 537 kts 21°
2026-05-08 13:28 13.35734 38.06462 36960 ft 538 kts 21°
2026-05-08 13:28 13.42635 38.09432 36955 ft 538 kts 21°
2026-05-08 13:29 13.49541 38.12406 36934 ft 538 kts 21°
2026-05-08 13:29 13.56405 38.15363 36890 ft 538 kts 22°
2026-05-08 13:30 13.63325 38.18345 36888 ft 539 kts 22°
2026-05-08 13:30 13.70246 38.21331 36880 ft 539 kts 21°
2026-05-08 13:31 13.77175 38.24321 36869 ft 540 kts 21°
2026-05-08 13:31 13.84077 38.27303 36865 ft 541 kts 21°
2026-05-08 13:32 13.91012 38.30299 36878 ft 540 kts 21°
2026-05-08 13:32 13.97965 38.33307 36866 ft 542 kts 21°
2026-05-08 13:33 14.04904 38.36311 36869 ft 542 kts 21°
2026-05-08 13:33 14.11854 38.39319 36867 ft 544 kts 21°
2026-05-08 13:34 14.18845 38.42350 36871 ft 545 kts 21°
2026-05-08 13:34 14.25804 38.45366 36868 ft 546 kts 21°
2026-05-08 13:35 14.32826 38.48410 36863 ft 548 kts 21°
2026-05-08 13:35 14.39851 38.51463 36852 ft 549 kts 21°
2026-05-08 13:36 14.46892 38.54524 36849 ft 550 kts 21°
2026-05-08 13:36 14.53949 38.57592 36847 ft 550 kts 21°
2026-05-08 13:37 14.61007 38.60662 36860 ft 550 kts 21°
2026-05-08 13:37 14.68070 38.63738 36858 ft 551 kts 21°
2026-05-08 13:38 14.75126 38.66813 36873 ft 551 kts 21°
2026-05-08 13:38 14.82167 38.69883 36877 ft 542 kts 21°
2026-05-08 13:39 14.85596 38.71382 36876 ft 527 kts 21°
2026-05-08 13:39 14.88947 38.72845 36881 ft 522 kts 21°
2026-05-08 13:39 14.95606 38.75752 36900 ft 517 kts 21°
2026-05-08 13:40 15.02186 38.78625 36923 ft 516 kts 21°
2026-05-08 13:40 15.08804 38.81518 36923 ft 515 kts 21°
2026-05-08 13:41 15.15407 38.84408 36938 ft 517 kts 21°
2026-05-08 13:41 15.22046 38.87315 36947 ft 519 kts 21°
2026-05-08 13:42 15.28893 38.89577 36940 ft 516 kts
2026-05-08 13:42 15.34788 38.90445 36932 ft 513 kts 359°
2026-05-08 13:43 15.41919 38.90684 36929 ft 514 kts 358°
2026-05-08 13:43 15.50244 38.90897 36929 ft 515 kts 358°
2026-05-08 13:44 15.56248 38.91087 36906 ft 514 kts 358°
2026-05-08 13:44 15.63356 38.91339 36916 ft 512 kts 358°
2026-05-08 13:45 15.70491 38.91598 36905 ft 514 kts 358°
2026-05-08 13:45 15.77649 38.91854 36892 ft 516 kts 358°
2026-05-08 13:46 15.84832 38.92111 36886 ft 517 kts 358°
2026-05-08 13:46 15.92044 38.92369 36869 ft 518 kts 358°
2026-05-08 13:47 15.99269 38.92628 36846 ft 519 kts 358°
2026-05-08 13:47 16.06448 38.92885 36860 ft 519 kts 358°
2026-05-08 13:48 16.13663 38.93144 36849 ft 519 kts 358°
2026-05-08 13:48 16.20874 38.93402 36850 ft 518 kts 358°
2026-05-08 13:49 16.28089 38.93661 36835 ft 518 kts 358°
2026-05-08 13:49 16.35300 38.93920 36825 ft 518 kts 358°
2026-05-08 13:50 16.42475 38.94178 36820 ft 518 kts 358°
2026-05-08 13:50 16.49680 38.94437 36830 ft 518 kts 358°
2026-05-08 13:51 16.56887 38.94696 36816 ft 518 kts 358°
2026-05-08 13:51 16.64050 38.94954 36823 ft 518 kts 358°
2026-05-08 13:52 16.71262 38.95214 36816 ft 518 kts 358°
2026-05-08 13:52 16.78492 38.95475 36814 ft 519 kts 358°
2026-05-08 13:53 16.85719 38.95736 36813 ft 519 kts 358°
2026-05-08 13:53 16.92948 38.95997 36810 ft 520 kts 358°
2026-05-08 13:54 17.00181 38.96258 36809 ft 520 kts 358°
2026-05-08 13:54 17.07424 38.96520 36804 ft 520 kts 358°
2026-05-08 13:55 17.14615 38.96781 36806 ft 520 kts 358°
2026-05-08 13:56 17.25475 38.97175 36805 ft 520 kts 358°
2026-05-08 13:56 17.32724 38.97437 36804 ft 521 kts 358°
2026-05-08 13:57 17.39970 38.97701 36804 ft 521 kts 358°
2026-05-08 13:57 17.47226 38.97964 36803 ft 521 kts 358°
2026-05-08 13:58 17.54441 38.98226 36817 ft 522 kts 358°
2026-05-08 13:58 17.61706 38.98489 36802 ft 522 kts 358°
2026-05-08 13:59 17.68963 38.98753 36804 ft 523 kts 358°
2026-05-08 13:59 17.76251 38.99019 36802 ft 523 kts 358°
2026-05-08 14:00 17.83526 38.99284 36807 ft 523 kts 358°
2026-05-08 14:00 17.90818 38.99550 36803 ft 524 kts 358°
2026-05-08 14:01 17.98060 38.99814 36804 ft 524 kts 358°
2026-05-08 14:01 18.05357 39.00081 36800 ft 524 kts 358°
2026-05-08 14:02 18.12648 39.00348 36801 ft 525 kts 358°
2026-05-08 14:02 18.19958 39.00635 36800 ft 526 kts 358°
2026-05-08 14:03 18.27275 39.01040 36802 ft 527 kts 359°
2026-05-08 14:03 18.34598 39.01471 36810 ft 527 kts 359°
2026-05-08 14:04 18.41885 39.01884 36801 ft 528 kts 358°
2026-05-08 14:04 18.49226 39.02288 36801 ft 529 kts 358°
2026-05-08 14:05 18.56596 39.02693 36799 ft 529 kts 358°
2026-05-08 14:05 18.63964 39.03100 36806 ft 530 kts 358°
2026-05-08 14:06 18.71327 39.03508 36800 ft 530 kts 358°
2026-05-08 14:06 18.78706 39.03917 36803 ft 530 kts 358°
2026-05-08 14:07 18.86070 39.04326 36801 ft 530 kts 358°
2026-05-08 14:07 18.93440 39.04735 36803 ft 530 kts 358°
2026-05-08 14:08 19.00813 39.05144 36805 ft 530 kts 358°
2026-05-08 14:08 19.08182 39.05520 36794 ft 528 kts 355°
2026-05-08 14:09 19.15443 39.04907 36815 ft 519 kts 344°
2026-05-08 14:09 19.22342 39.03150 36804 ft 512 kts 338°
2026-05-08 14:10 19.29217 39.01122 36799 ft 513 kts 338°
2026-05-08 14:10 19.30562 39.00726 36799 ft 513 kts 338°
2026-05-08 14:11 19.37448 38.98725 36804 ft 514 kts 338°
2026-05-08 14:11 19.44356 38.96748 36811 ft 515 kts 338°
2026-05-08 14:12 19.51288 38.94772 36806 ft 516 kts 338°
2026-05-08 14:12 19.58241 38.92787 36802 ft 517 kts 338°
2026-05-08 14:13 19.65193 38.90799 36802 ft 518 kts 338°
2026-05-08 14:13 19.72159 38.88805 36809 ft 517 kts 338°
2026-05-08 14:13 19.75624 38.87812 36539 ft 516 kts 338°
2026-05-08 14:14 19.79080 38.86823 36121 ft 513 kts 338°
2026-05-08 14:14 19.82511 38.85841 35678 ft 505 kts 339°
2026-05-08 14:14 19.85866 38.84884 35205 ft 497 kts 339°
2026-05-08 14:14 19.89149 38.83943 34741 ft 493 kts 339°
2026-05-08 14:15 19.92490 38.82982 34265 ft 490 kts 339°
2026-05-08 14:15 19.95704 38.82059 33760 ft 478 kts 339°
2026-05-08 14:15 19.98877 38.81150 33243 ft 465 kts 339°
2026-05-08 14:15 20.01960 38.80267 32741 ft 453 kts 339°
2026-05-08 14:16 20.04956 38.79407 32259 ft 440 kts 339°
2026-05-08 14:16 20.07884 38.78564 31812 ft 432 kts 339°
2026-05-08 14:16 20.10778 38.77727 31370 ft 430 kts 340°
2026-05-08 14:16 20.13660 38.76892 30914 ft 428 kts 340°
2026-05-08 14:17 20.16525 38.76063 30462 ft 426 kts 340°
2026-05-08 14:17 20.19384 38.75236 30004 ft 425 kts 341°
2026-05-08 14:17 20.22231 38.74414 29475 ft 423 kts 341°
2026-05-08 14:17 20.25063 38.73597 28957 ft 420 kts 341°
2026-05-08 14:18 20.27876 38.72785 28500 ft 417 kts 341°
2026-05-08 14:18 20.30666 38.71981 28017 ft 413 kts 341°
2026-05-08 14:18 20.33432 38.71182 27550 ft 410 kts 341°
2026-05-08 14:18 20.36173 38.70391 27090 ft 406 kts 341°
2026-05-08 14:19 20.38891 38.69605 26653 ft 403 kts 341°
2026-05-08 14:19 20.41549 38.68837 26204 ft 399 kts 341°
2026-05-08 14:19 20.44217 38.68065 25764 ft 396 kts 342°
2026-05-08 14:19 20.46868 38.67298 25329 ft 393 kts 342°
2026-05-08 14:20 20.49494 38.66538 24892 ft 390 kts 342°
2026-05-08 14:20 20.52108 38.65780 24448 ft 387 kts 342°
2026-05-08 14:20 20.54700 38.65030 24009 ft 384 kts 342°
2026-05-08 14:20 20.58465 38.63939 23400 ft 380 kts 342°
2026-05-08 14:21 20.63523 38.62472 22456 ft 373 kts 342°
2026-05-08 14:21 20.68497 38.61030 21602 ft 366 kts 342°
2026-05-08 14:21 20.73376 38.59612 20774 ft 360 kts 342°
2026-05-08 14:21 20.78186 38.58214 19968 ft 356 kts 342°
2026-05-08 14:22 20.82931 38.56837 19167 ft 351 kts 342°
2026-05-08 14:22 20.87731 38.57206 18405 ft 357 kts 23°
2026-05-08 14:22 20.91962 38.59970 17627 ft 355 kts 30°
2026-05-08 14:22 20.96143 38.62765 16797 ft 353 kts 30°
2026-05-08 14:23 21.00251 38.65465 16402 ft 340 kts 29°
2026-05-08 14:23 21.04245 38.68085 16075 ft 336 kts 30°
2026-05-08 14:23 21.08294 38.70739 15769 ft 350 kts 30°
2026-05-08 14:23 21.12487 38.73492 15442 ft 365 kts 30°
2026-05-08 14:24 21.16845 38.76359 15076 ft 368 kts 30°
2026-05-08 14:24 21.20981 38.79084 14694 ft 363 kts 30°
2026-05-08 14:24 21.23110 38.80487 14500 ft 357 kts 30°
2026-05-08 14:24 21.25209 38.81870 14311 ft 350 kts 30°
2026-05-08 14:25 21.27269 38.83228 14133 ft 345 kts 30°
2026-05-08 14:25 21.29312 38.84575 13984 ft 345 kts 30°
2026-05-08 14:25 21.31367 38.85929 13933 ft 349 kts 30°
2026-05-08 14:25 21.33456 38.87306 13793 ft 354 kts 30°
2026-05-08 14:26 21.35557 38.88693 13635 ft 354 kts 30°
2026-05-08 14:26 21.37644 38.90072 13423 ft 351 kts 30°
2026-05-08 14:26 21.39712 38.91437 13247 ft 347 kts 30°
2026-05-08 14:26 21.41757 38.92788 13060 ft 344 kts 30°
2026-05-08 14:27 21.43713 38.94246 12748 ft 343 kts 40°
2026-05-08 14:27 21.45430 38.96026 12364 ft 343 kts 46°
2026-05-08 14:27 21.47066 38.97899 12005 ft 342 kts 46°
2026-05-08 14:27 21.48686 38.99750 11664 ft 339 kts 45°
2026-05-08 14:28 21.50319 39.01565 11314 ft 337 kts 45°
2026-05-08 14:28 21.51934 39.03322 10954 ft 336 kts 45°
2026-05-08 14:28 21.53576 39.05095 10728 ft 329 kts 45°
2026-05-08 14:28 21.55133 39.06834 10605 ft 315 kts 51°
2026-05-08 14:29 21.56153 39.08857 10465 ft 302 kts 71°
2026-05-08 14:29 21.56806 39.10960 10347 ft 293 kts 72°
2026-05-08 14:29 21.57473 39.12974 10207 ft 285 kts 71°
2026-05-08 14:29 21.58140 39.14935 9975 ft 273 kts 70°
2026-05-08 14:30 21.58784 39.16814 9689 ft 267 kts 70°
2026-05-08 14:30 21.59418 39.18660 9520 ft 259 kts 70°
2026-05-08 14:30 21.59825 39.19842 9367 ft 252 kts 71°
2026-05-08 14:30 21.60426 39.21589 9003 ft 248 kts 70°
2026-05-08 14:31 21.61029 39.23343 8507 ft 251 kts 71°
2026-05-08 14:31 21.61638 39.25117 8042 ft 252 kts 70°
2026-05-08 14:31 21.62100 39.26894 7645 ft 245 kts 89°
2026-05-08 14:32 21.60656 39.29944 6811 ft 235 kts 144°
2026-05-08 14:32 21.59226 39.30731 6425 ft 230 kts 159°
2026-05-08 14:32 21.57709 39.31315 5983 ft 231 kts 161°
2026-05-08 14:32 21.56203 39.31881 5619 ft 228 kts 161°
2026-05-08 14:33 21.54710 39.32451 5224 ft 227 kts 161°
2026-05-08 14:33 21.53217 39.33025 4803 ft 229 kts 161°
2026-05-08 14:33 21.51716 39.33604 4404 ft 229 kts 160°
2026-05-08 14:33 21.50222 39.34186 4012 ft 229 kts 160°
2026-05-08 14:34 21.48723 39.34771 3610 ft 229 kts 160°
2026-05-08 14:34 21.47223 39.35358 3213 ft 229 kts 161°
2026-05-08 14:34 21.45729 39.35923 3038 ft 231 kts 167°
2026-05-08 14:34 21.44184 39.35835 2996 ft 219 kts 206°
2026-05-08 14:35 21.43185 39.34788 3020 ft 197 kts 243°
2026-05-08 14:35 21.42694 39.33467 3015 ft 191 kts 252°
2026-05-08 14:35 21.42287 39.32102 3017 ft 193 kts 253°
2026-05-08 14:35 21.41892 39.30724 3020 ft 194 kts 253°
2026-05-08 14:36 21.41494 39.29319 3006 ft 194 kts 254°
2026-05-08 14:36 21.41166 39.27936 2995 ft 193 kts 266°
2026-05-08 14:36 21.41512 39.26604 2998 ft 189 kts 307°
2026-05-08 14:36 21.42558 39.25758 3021 ft 195 kts 335°
2026-05-08 14:37 21.43833 39.25243 3005 ft 196 kts 340°
2026-05-08 14:37 21.45098 39.24773 2995 ft 194 kts 340°
2026-05-08 14:37 21.46357 39.24292 2998 ft 192 kts 339°
2026-05-08 14:37 21.47597 39.23809 2992 ft 191 kts 339°
2026-05-08 14:38 21.48836 39.23322 2998 ft 191 kts 339°
2026-05-08 14:38 21.50085 39.22830 2994 ft 191 kts 339°
2026-05-08 14:38 21.51314 39.22345 2961 ft 187 kts 339°
2026-05-08 14:38 21.52523 39.21867 2712 ft 181 kts 340°
2026-05-08 14:39 21.53676 39.21411 2473 ft 171 kts 340°
2026-05-08 14:39 21.54746 39.20989 2286 ft 160 kts 340°
2026-05-08 14:39 21.55747 39.20593 2096 ft 146 kts 340°
2026-05-08 14:39 21.56654 39.20235 1921 ft 140 kts 339°
2026-05-08 14:40 21.57582 39.19867 1749 ft 143 kts 339°
2026-05-08 14:40 21.58490 39.19508 1553 ft 137 kts 340°
2026-05-08 14:40 21.59393 39.19151 1390 ft 140 kts 340°
2026-05-08 14:40 21.60314 39.18785 1225 ft 145 kts 341°
2026-05-08 14:41 21.61245 39.18420 1011 ft 139 kts 341°
2026-05-08 14:41 21.62132 39.18068 860 ft 131 kts 340°
2026-05-08 14:41 21.62979 39.17731 706 ft 130 kts 339°
2026-05-08 14:41 21.63835 39.17393 556 ft 132 kts 338°
2026-05-08 14:42 21.64689 39.17047 372 ft 135 kts 339°
2026-05-08 14:42 21.65571 39.16699 174 ft 134 kts 340°
2026-05-08 14:42 21.66444 39.16365 50 ft 128 kts 339°
2026-05-08 14:42 21.67190 39.16065 36 ft 97 kts 340°
2026-05-08 14:43 21.67679 39.15875 35 ft 52 kts 340°
2026-05-08 14:43 21.67876 39.15796 34 ft 8 kts 339°
2026-05-08 14:43 21.67934 39.15773 34 ft 18 kts 339°
2026-05-08 14:43 21.68069 39.15718 34 ft 21 kts 338°
2026-05-08 14:44 21.68174 39.15627 31 ft 13 kts 313°
2026-05-08 14:44 21.68232 39.15549 31 ft 13 kts 306°
2026-05-08 14:44 21.68287 39.15469 31 ft 13 kts 307°
2026-05-08 14:44 21.68336 39.15385 31 ft 13 kts 281°
2026-05-08 14:45 21.68368 39.15299 31 ft 14 kts 331°
2026-05-08 14:45 21.68459 39.15262 30 ft 14 kts 340°
2026-05-08 14:45 21.68550 39.15226 30 ft 14 kts 340°
2026-05-08 14:45 21.68642 39.15190 30 ft 14 kts 339°
2026-05-08 14:46 21.68732 39.15154 29 ft 14 kts 339°
2026-05-08 14:46 21.68821 39.15115 29 ft 6 kts 324°
2026-05-08 14:46 21.68827 39.15094 29 ft 11 kts 278°
2026-05-08 14:46 21.68797 39.14972 29 ft 18 kts 279°
2026-05-08 14:47 21.68902 39.14906 29 ft 18 kts 341°
2026-05-08 14:47 21.69022 39.14860 28 ft 18 kts 339°
2026-05-08 14:47 21.69141 39.14812 28 ft 18 kts 339°
2026-05-08 14:47 21.69264 39.14763 27 ft 21 kts 340°
2026-05-08 14:48 21.69403 39.14708 27 ft 21 kts 339°
2026-05-08 14:48 21.69548 39.14651 27 ft 22 kts 340°
2026-05-08 14:48 21.69694 39.14593 27 ft 22 kts 340°
2026-05-08 14:48 21.69818 39.14545 27 ft 12 kts 341°
2026-05-08 14:49 21.69856 39.14478 27 ft 12 kts 266°
2026-05-08 14:49 21.69846 39.14431 27 ft 0 kts 253°
2026-05-08 14:49 21.69845 39.14428 27 ft 1 kts 253°
2026-05-08 14:49 21.69844 39.14423 27 ft 0 kts 253°